GSAT0216 (GALILEO 20)

Last updated on July 14, 2020, 5:23 a.m. UTC

1 43056U 17079B   20195.22756039 -.00000029  00000-0  00000+0 0  9994
2 43056  56.2479 281.0916 0004577 255.3450 104.6588  1.70474750 16067
UTC
Height (km)
Latitude
Longitude
Inclination
Orbital Period
UTC large
Height (km)
Speed (km/s)
/
Latitude / Longitude
Inclination (degrees)
Orbital Period (minutes)
Azimuth
Elevation
Range (km)
Doppler Factor
iOS Compass Heading
iOS Angle

Next 30 passes for location: Hong Kong

Rise time Rise Azimuth (degrees) Set time Set Azimuth (degrees) Duration Max altitude (degrees)

No matching passes for this satellites